Wind_Speed
12 2 2 4 2 4 5 6 6 4 4 5 4 3 3 4 5 4 3 2 1 4 2 1 2 1 4 3 2 2 5 6 5
10 8 1 3 3 3 5 7 7 5 5 4 4 2 1 3 5 6 5 5 2 3 4 5 4 5 7 11 7 7 9 11 9
9 11 7 5 1 2 3 5 7 5 4 3 3 1 1 3 2 3 4 4 1 3 6 7 8 9 10 10 12 12 14 17 20
9 5 6 5 3 3 3 2 5 9 7 6 6 4 6 5 4 4 3 5 3 8 10 12 13 13 15 15 16 14 23 26 23
17 10 2 2 2 0 4 3 2 3 3 3 6 7 8 7 6 6 4 6 6 7 12 15 15 18 24 20 13 12 41 23 32
17 15 9 5 2 3 1 1 1 1 1 2 2 4 5 6 6 4 3 6 7 8 14 14 21 22 28 32 20 19 31 30 32
18 18 10 8 9 9 9 5 3 4 4 4 5 5 6 6 4 2 4 7 9 12 15 16 18 27 25 30 30 32 35 37 28
19 18 17 12 11 12 14 14 11 8 10 9 8 8 8 8 5 5 6 10 12 12 16 19 22 31 23 28 31 33 35 37 31
20 19 22 22 20 15 14 13 13 9 13 16 15 13 13 12 10 10 10 13 14 13 18 20 25 26 21 24 27 32 35 35 31
21 23 22 21 20 18 17 17 15 12 9 14 18 19 18 16 15 14 12 15 18 19 18 23 22 25 22 21 27 33 34 35 30
22 26 23 21 18 18 20 20 17 16 14 16 16 18 20 21 21 18 18 20 23 25 24 23 22 23 26 28 29 32 35 34 30
24 27 28 25 22 21 21 24 25 24 22 22 22 20 20 20 24 25 25 26 30 31 28 27 25 27 28 25 32 34 34 33 31
34 35 33 32 34 33 32 29 27 26 28 29 26 25 24 22 23 26 28 31 32 33 31 26 28 30 32 28 35 33 32 31 32
36 34 31 26 25 25 26 28 32 32 32 33 31 30 31 30 28 27 26 29 31 31 30 31 31 33 28 35 41 36 30 33 31
41 32 27 29 22 17 27 28 28 33 36 39 39 38 40 40 38 34 34 35 35 33 33 32 33 34 33 42 40 33 35 32 29
26 37 32 16 16 19 20 20 25 32 37 40 41 43 45 45 42 41 38 36 35 33 34 34 35 34 41 42 36 39 36 33 26
43 30 26 17 19 17 20 24 28 31 31 33 35 40 43 43 44 40 40 40 37 35 37 38 40 41 44 38 38 38 35 29 24
37 33 18 23 25 24 29 35 33 32 33 34 34 34 35 38 40 42 43 44 43 43 44 44 43 41 37 38 37 33 30 27 25
31 24 25 26 23 24 32 31 31 30 32 34 34 33 34 33 34 36 38 40 40 40 39 37 37 36 37 39 33 32 32 31 26
17 21 23 22 20 24 29 30 30 30 31 33 33 34 35 36 36 37 36 35 35 34 34 35 38 38 39 37 34 33 32 29 24
Wind_Direction
42 67 157 179 174 155 211 239 237 202 173 143 105 79 43 356 11 45 97 124 139 151 238 309 277 239 270 262 260 293 302 287 283
34 46 150 155 193 134 194 241 250 199 175 163 152 141 36 345 8 26 77 124 173 174 191 240 247 258 275 287 284 280 278 287 294
40 51 69 77 106 172 211 214 246 252 210 215 219 199 243 310 337 13 32 81 252 255 225 245 262 273 273 281 294 291 294 301 307
18 59 94 85 29 17 108 154 239 252 248 238 237 240 254 240 249 261 295 321 305 298 308 297 287 276 272 273 277 305 318 300 290
345 356 39 168 271 49 45 89 141 227 245 259 249 241 235 234 221 245 278 310 344 333 315 298 307 302 304 277 280 319 350 282 286
326 329 325 325 241 219 230 12 104 318 224 205 188 210 205 208 213 233 292 317 330 315 312 328 328 335 331 354 30 3 351 348 302
309 307 291 289 285 270 262 259 237 215 222 214 205 216 196 199 217 261 300 306 301 313 313 323 327 315 325 353 13 355 352 355 346
299 285 280 290 281 277 278 273 264 213 197 199 209 226 239 240 251 292 302 294 296 303 308 323 315 314 353 354 353 350 351 353 348
279 268 284 291 286 279 276 274 276 254 206 212 223 232 242 255 265 282 291 294 295 297 312 323 319 332 348 341 342 338 344 347 345
255 246 256 267 285 277 281 286 289 289 263 230 228 236 244 251 262 273 280 284 286 291 305 317 313 319 313 330 336 336 342 343 338
233 241 241 251 253 269 279 279 277 279 275 267 262 254 251 251 253 258 268 273 276 287 298 304 307 308 311 321 335 331 332 333 338
251 221 239 243 254 267 263 266 265 265 265 267 274 270 266 261 255 254 259 262 275 285 291 293 299 300 307 308 328 327 321 327 335
239 231 222 238 268 264 260 264 265 263 266 270 268 266 260 256 255 255 256 258 269 278 280 287 292 294 297 310 322 321 316 324 327
240 233 242 240 229 238 242 248 253 252 251 252 255 256 254 251 249 253 258 264 267 271 277 280 290 286 294 308 316 316 313 319 323
227 227 220 230 213 238 254 247 253 258 259 257 255 256 259 257 255 255 259 264 266 270 273 277 285 290 297 306 310 308 314 313 323
255 270 232 220 227 254 258 260 260 259 257 256 258 256 254 253 254 259 262 265 266 271 273 276 281 284 297 304 302 306 307 304 317
259 278 270 264 266 253 258 266 269 264 261 262 257 255 255 256 259 261 262 262 263 269 271 278 284 289 296 297 298 303 302 297 309
266 287 288 281 277 272 265 265 261 260 259 262 261 258 261 260 259 259 261 264 269 270 273 277 283 286 289 296 299 301 298 296 303
266 276 276 280 275 264 265 263 263 263 264 261 255 253 253 257 263 264 266 267 268 270 273 275 279 283 292 296 295 295 293 298 295
262 261 265 265 268 261 259 259 259 262 262 264 265 262 260 261 262 263 265 266 267 268 270 276 281 285 289 290 293 290 288 292 290
Height
5918 5917 5918 5920 5921 5923 5922 5922 5923 5923 5923 5923 5922 5921 5921 5922 5923 5926 5927 5926 5925 5926 5925 5923 5922 5918 5919 5917 5915 5914 5913 5913 5911
5917 5918 5918 5919 5922 5923 5923 5922 5922 5924 5923 5923 5922 5921 5921 5922 5923 5924 5927 5927 5925 5924 5923 5921 5918 5917 5917 5916 5914 5912 5911 5911 5908
5917 5918 5919 5919 5921 5924 5924 5922 5921 5922 5923 5923 5923 5922 5923 5924 5924 5923 5924 5924 5922 5920 5919 5918 5916 5916 5915 5913 5911 5911 5910 5908 5907
5919 5919 5920 5922 5922 5923 5923 5922 5921 5921 5921 5922 5923 5922 5922 5923 5924 5923 5922 5921 5921 5920 5919 5916 5914 5911 5909 5909 5908 5909 5909 5902 5896
5915 5917 5919 5921 5923 5922 5922 5922 5922 5921 5920 5921 5922 5921 5922 5922 5922 5922 5921 5921 5921 5920 5917 5914 5914 5909 5907 5900 5904 5907 5897 5887 5889
5912 5914 5915 5917 5920 5922 5923 5922 5921 5920 5919 5920 5920 5921 5921 5921 5920 5919 5920 5919 5919 5917 5915 5916 5913 5911 5903 5887 5895 5899 5893 5888 5881
5911 5912 5913 5914 5915 5918 5920 5922 5922 5920 5919 5919 5919 5920 5920 5920 5920 5920 5920 5918 5916 5915 5913 5912 5910 5902 5901 5894 5895 5893 5887 5882 5872
5907 5908 5910 5911 5913 5914 5915 5917 5920 5920 5919 5919 5919 5918 5918 5918 5919 5918 5917 5913 5912 5912 5910 5908 5905 5901 5895 5891 5892 5891 5884 5877 5873
5904 5905 5904 5906 5909 5910 5911 5912 5913 5916 5917 5917 5917 5916 5916 5917 5917 5917 5914 5910 5909 5908 5906 5904 5900 5897 5894 5891 5888 5885 5881 5876 5871
5899 5901 5901 5902 5903 5906 5907 5907 5908 5909 5911 5913 5913 5913 5913 5914 5913 5913 5911 5908 5905 5904 5904 5901 5899 5895 5889 5885 5886 5881 5876 5874 5870
5893 5895 5897 5899 5900 5902 5903 5904 5904 5905 5906 5907 5908 5908 5909 5909 5908 5908 5906 5903 5900 5899 5898 5898 5896 5894 5889 5885 5883 5879 5875 5870 5866
5885 5888 5889 5891 5893 5895 5898 5899 5899 5900 5900 5901 5901 5903 5903 5903 5902 5901 5900 5898 5895 5893 5894 5892 5890 5887 5885 5879 5879 5876 5870 5866 5862
5874 5872 5880 5884 5886 5887 5889 5891 5893 5894 5893 5893 5895 5895 5895 5895 5896 5895 5894 5892 5891 5888 5886 5887 5884 5882 5878 5871 5874 5870 5864 5860 5858
5865 5869 5870 5871 5876 5879 5880 5881 5883 5884 5885 5885 5885 5886 5886 5886 5887 5886 5885 5884 5883 5882 5879 5877 5876 5871 5868 5868 5865 5861 5857 5854 5851
5853 5858 5860 5863 5867 5871 5875 5873 5873 5874 5875 5876 5877 5878 5876 5875 5876 5876 5876 5875 5874 5875 5874 5871 5866 5863 5860 5860 5856 5852 5849 5846 5841
5846 5852 5852 5853 5854 5861 5862 5862 5864 5864 5865 5865 5865 5865 5865 5864 5866 5867 5867 5866 5866 5865 5864 5863 5861 5859 5857 5853 5849 5845 5842 5840 5836
5843 5848 5844 5841 5846 5849 5851 5853 5855 5855 5854 5854 5854 5854 5854 5854 5855 5856 5857 5857 5857 5857 5855 5854 5851 5850 5848 5846 5842 5838 5835 5832 5830
5833 5837 5834 5833 5837 5840 5842 5843 5843 5844 5843 5844 5844 5845 5843 5844 5844 5844 5845 5846 5846 5847 5846 5845 5844 5842 5839 5838 5834 5831 5828 5826 5824
5823 5824 5825 5826 5829 5830 5829 5829 5829 5830 5831 5833 5833 5833 5834 5834 5833 5834 5834 5835 5835 5835 5835 5835 5834 5832 5830 5828 5826 5824 5821 5819 5817
5818 5817 5817 5819 5821 5824 5823 5822 5822 5821 5821 5823 5823 5824 5824 5824 5824 5824 5824 5824 5824 5824 5824 5824 5823 5822 5821 5818 5818 5815 5813 5812 5810